sat.trackr.live / text

‹ back to catalog

CHECKMATE 7

NORAD 56166 · 2023-050E

PAYLOAD ACTIVE UNKNOWN

§ Identity

Operator
Country
US
Launch date
2023-04-02
Launch site
AFWTR
Launch vehicle
Mass (kg)
RCS (m²)

External: N2YO · Heavens-Above · Gunter

§ Orbital elements

Epoch: 2026-09-21T16:20:33.226368Z

Period
103.64 min
Inclination
81.0035°
Eccentricity
0.0021700
Mean motion
13.89450860 rev/d
Perigee alt
914.7 km
Apogee alt
946.4 km
Semi-major
7,308.7 km
B*
2.4877e-6
RAAN
338.0613°
Arg perigee
47.7007°
Mean anomaly
312.5986°
Rev number
17,550

§ Raw data

CHECKMATE 71 56166U 23050E   26264.68094012  .00000014  00000+0  24877-5 0  99912 56166  81.0035 338.0613 0021700  47.7007 312.5986 13.89450860175508

JSON: /api/v1/satellites/56166 · /tle

For live sub-satellite position, see the globe view (requires WebGL).

§ Visibility from observer

Set your observer location to see the next 7 days of passes ≥ 10°. The values pass through the URL so the page stays shareable.

No JS? Fill the form by hand. The geolocation button needs JavaScript.